Meteo orario Abony

Oggi, 14 Giugno, Lunedi

Tempo Temperatura Precipitazioni Vento Pressione Umidità
00:00 +12°C° 0 mm 3 m/s 757 mm Hg 62%
01:00 +11°C° 0 mm 3 m/s 757 mm Hg 65%
02:00 +10°C° 0 mm 3 m/s 756 mm Hg 67%
03:00 +10°C° 0 mm 3 m/s 756 mm Hg 69%
04:00 +9°C° 0 mm 3 m/s 756 mm Hg 70%
05:00 +11°C° 0 mm 3 m/s 756 mm Hg 67%
06:00 +13°C° 0 mm 3 m/s 757 mm Hg 63%
07:00 +16°C° 0 mm 3 m/s 757 mm Hg 61%
08:00 +17°C° 0 mm 3 m/s 757 mm Hg 58%
09:00 +18°C° 0 mm 3 m/s 757 mm Hg 55%
10:00 +19°C° 0 mm 3 m/s 757 mm Hg 51%
11:00 +20°C° 0 mm 3 m/s 757 mm Hg 51%
12:00 +20°C° 0 mm 3 m/s 756 mm Hg 50%
13:00 +21°C° 0 mm 2 m/s 756 mm Hg 49%
14:00 +20°C° 0 mm 3 m/s 756 mm Hg 50%
15:00 +20°C° 0 mm 3 m/s 756 mm Hg 51%
16:00 +20°C° 0 mm 4 m/s 756 mm Hg 52%
17:00 +19°C° 0 mm 3 m/s 756 mm Hg 57%
18:00 +18°C° 0 mm 2 m/s 756 mm Hg 61%
19:00 +17°C° 0 mm 2 m/s 756 mm Hg 66%
20:00 +16°C° 0 mm 2 m/s 756 mm Hg 64%
21:00 +16°C° 0 mm 1 m/s 756 mm Hg 63%
22:00 +16°C° 0 mm 1 m/s 756 mm Hg 62%
23:00 +16°C° 0 mm 2 m/s 756 mm Hg 63%

Domani, 15 Giugno, Martedi

Tempo Temperatura Precipitazioni Vento Pressione Umidità
00:00 +15°C° 0 mm 2 m/s 756 mm Hg 64%
01:00 +15°C° 0 mm 2 m/s 756 mm Hg 65%
02:00 +13°C° 0 mm 3 m/s 756 mm Hg 69%
03:00 +13°C° 0 mm 3 m/s 756 mm Hg 72%
04:00 +12°C° 0 mm 3 m/s 755 mm Hg 75%
05:00 +14°C° 0 mm 3 m/s 756 mm Hg 71%
06:00 +16°C° 0 mm 2 m/s 756 mm Hg 67%
07:00 +18°C° 0 mm 2 m/s 756 mm Hg 62%
08:00 +20°C° 0 mm 2 m/s 756 mm Hg 58%
09:00 +21°C° 0 mm 2 m/s 756 mm Hg 54%
10:00 +24°C° 0 mm 2 m/s 756 mm Hg 50%
11:00 +24°C° 0 mm 3 m/s 755 mm Hg 48%
12:00 +25°C° 0 mm 3 m/s 755 mm Hg 47%
13:00 +26°C° 0 mm 3 m/s 755 mm Hg 45%
14:00 +26°C° 0 mm 3 m/s 754 mm Hg 46%
15:00 +26°C° 0 mm 3 m/s 754 mm Hg 46%
16:00 +27°C° 0 mm 3 m/s 754 mm Hg 46%
17:00 +25°C° 0 mm 2 m/s 754 mm Hg 54%
18:00 +24°C° 0 mm 2 m/s 754 mm Hg 61%
19:00 +21°C° 0 mm 2 m/s 753 mm Hg 68%
20:00 +20°C° 0 mm 2 m/s 753 mm Hg 69%
21:00 +19°C° 0 mm 2 m/s 754 mm Hg 70%
22:00 +18°C° 0 mm 2 m/s 754 mm Hg 71%
23:00 +18°C° 0 mm 2 m/s 754 mm Hg 73%

Dopodomani, 16 Giugno, Mercoledi

Tempo Temperatura Precipitazioni Vento Pressione Umidità
00:00 +17°C° 0 mm 2 m/s 754 mm Hg 74%
01:00 +17°C° 0 mm 2 m/s 754 mm Hg 76%
02:00 +17°C° 0 mm 2 m/s 754 mm Hg 78%
03:00 +16°C° 0 mm 2 m/s 754 mm Hg 80%
04:00 +16°C° 0 mm 2 m/s 754 mm Hg 82%
05:00 +18°C° 0 mm 2 m/s 754 mm Hg 76%
06:00 +19°C° 0 mm 2 m/s 754 mm Hg 71%
07:00 +21°C° 0 mm 3 m/s 754 mm Hg 65%
08:00 +22°C° 0 mm 3 m/s 754 mm Hg 59%
09:00 +25°C° 0 mm 3 m/s 754 mm Hg 54%
10:00 +26°C° 0 mm 4 m/s 755 mm Hg 49%
11:00 +27°C° 0 mm 4 m/s 754 mm Hg 47%
12:00 +27°C° 0 mm 4 m/s 754 mm Hg 45%
13:00 +28°C° 0 mm 4 m/s 754 mm Hg 43%
14:00 +28°C° 0 mm 4 m/s 754 mm Hg 43%
15:00 +28°C° 0 mm 4 m/s 754 mm Hg 44%
16:00 +28°C° 0 mm 4 m/s 754 mm Hg 44%
17:00 +26°C° 0 mm 3 m/s 754 mm Hg 51%
18:00 +25°C° 0 mm 2 m/s 754 mm Hg 57%
19:00 +23°C° 0 mm 1 m/s 754 mm Hg 63%
20:00 +23°C° 0 mm 2 m/s 754 mm Hg 65%
21:00 +21°C° 0 mm 2 m/s 754 mm Hg 66%
22:00 +20°C° 0 mm 2 m/s 754 mm Hg 67%
23:00 +19°C° 0 mm 2 m/s 754 mm Hg 72%

17 Giugno, Giovedi

Tempo Temperatura Precipitazioni Vento Pressione Umidità
00:00 +18°C° 0 mm 3 m/s 754 mm Hg 77%
01:00 +18°C° 0 mm 3 m/s 755 mm Hg 82%
02:00 +17°C° 0 mm 3 m/s 755 mm Hg 85%
03:00 +17°C° 0 mm 3 m/s 755 mm Hg 88%
04:00 +17°C° 0 mm 3 m/s 755 mm Hg 91%
05:00 +18°C° 0 mm 3 m/s 755 mm Hg 84%
06:00 +20°C° 0 mm 3 m/s 755 mm Hg 78%
07:00 +22°C° 0 mm 4 m/s 756 mm Hg 72%
08:00 +23°C° 0 mm 4 m/s 756 mm Hg 66%
09:00 +26°C° 0 mm 4 m/s 756 mm Hg 60%
10:00 +27°C° 0 mm 4 m/s 756 mm Hg 54%
11:00 +28°C° 0 mm 4 m/s 756 mm Hg 52%
12:00 +29°C° 0 mm 4 m/s 755 mm Hg 49%
13:00 +29°C° 0 mm 3 m/s 755 mm Hg 47%
14:00 +29°C° 0 mm 3 m/s 755 mm Hg 47%
15:00 +29°C° 0 mm 3 m/s 755 mm Hg 47%
16:00 +30°C° 0 mm 3 m/s 755 mm Hg 46%
17:00 +28°C° 0 mm 3 m/s 755 mm Hg 53%
18:00 +27°C° 0 mm 2 m/s 755 mm Hg 60%
19:00 +25°C° 0 mm 2 m/s 755 mm Hg 67%
20:00 +24°C° 0 mm 2 m/s 755 mm Hg 69%
21:00 +23°C° 0 mm 2 m/s 755 mm Hg 71%
22:00 +22°C° 0 mm 1 m/s 755 mm Hg 73%
23:00 +21°C° 0 mm 1 m/s 755 mm Hg 75%

18 Giugno, Venerdi

Tempo Temperatura Precipitazioni Vento Pressione Umidità
00:00 +21°C° 0 mm 1 m/s 755 mm Hg 77%
01:00 +21°C° 0 mm 1 m/s 755 mm Hg 79%
02:00 +19°C° 0 mm 2 m/s 755 mm Hg 80%
03:00 +19°C° 0 mm 2 m/s 755 mm Hg 81%
04:00 +19°C° 0 mm 2 m/s 755 mm Hg 82%
05:00 +20°C° 0 mm 3 m/s 755 mm Hg 78%
06:00 +22°C° 0 mm 3 m/s 755 mm Hg 74%
07:00 +24°C° 0 mm 3 m/s 755 mm Hg 70%
08:00 +26°C° 0 mm 4 m/s 755 mm Hg 65%
09:00 +27°C° 0 mm 4 m/s 755 mm Hg 60%
10:00 +29°C° 0 mm 4 m/s 755 mm Hg 56%
11:00 +30°C° 0 mm 4 m/s 755 mm Hg 53%
12:00 +32°C° 0 mm 4 m/s 755 mm Hg 49%
13:00 +33°C° 0 mm 4 m/s 754 mm Hg 46%
14:00 +32°C° 0 mm 4 m/s 754 mm Hg 49%
15:00 +30°C° 0 mm 3 m/s 754 mm Hg 53%
16:00 +30°C° 0 mm 3 m/s 754 mm Hg 56%
17:00 +29°C° 0 mm 3 m/s 754 mm Hg 61%
18:00 +28°C° 0 mm 3 m/s 754 mm Hg 65%
19:00 +27°C° 0 mm 3 m/s 754 mm Hg 70%
20:00 +26°C° 0 mm 3 m/s 754 mm Hg 72%
21:00 +24°C° 0 mm 3 m/s 754 mm Hg 75%
22:00 +22°C° 0 mm 3 m/s 755 mm Hg 77%
23:00 +22°C° 0 mm 3 m/s 755 mm Hg 79%

19 Giugno, Sabato

Tempo Temperatura Precipitazioni Vento Pressione Umidità
00:00 +21°C° 0 mm 3 m/s 755 mm Hg 81%
01:00 +20°C° 0 mm 3 m/s 755 mm Hg 84%
02:00 +20°C° 0 mm 2 m/s 755 mm Hg 85%
03:00 +19°C° 0 mm 2 m/s 755 mm Hg 87%
04:00 +19°C° 0 mm 2 m/s 755 mm Hg 89%
05:00 +20°C° 0 mm 2 m/s 756 mm Hg 83%
06:00 +23°C° 0 mm 2 m/s 756 mm Hg 78%
07:00 +24°C° 0 mm 3 m/s 756 mm Hg 73%
08:00 +25°C° 0 mm 3 m/s 756 mm Hg 68%
09:00 +27°C° 0 mm 3 m/s 756 mm Hg 63%
10:00 +28°C° 0 mm 3 m/s 756 mm Hg 58%
11:00 +29°C° 0 mm 3 m/s 756 mm Hg 55%
12:00 +30°C° 0 mm 3 m/s 756 mm Hg 51%
13:00 +30°C° 0 mm 3 m/s 755 mm Hg 48%
14:00 +30°C° 0 mm 2 m/s 755 mm Hg 50%
15:00 +29°C° 0 mm 2 m/s 755 mm Hg 53%
16:00 +29°C° 0 mm 2 m/s 755 mm Hg 56%
17:00 +28°C° 0 mm 1 m/s 755 mm Hg 58%
18:00 +27°C° 0 mm 1 m/s 755 mm Hg 61%
19:00 +26°C° 0 mm 1 m/s 755 mm Hg 63%
20:00 +25°C° 0 mm 1 m/s 755 mm Hg 66%
21:00 +24°C° 0 mm 1 m/s 755 mm Hg 68%
22:00 +21°C° 0 mm 0 m/s 756 mm Hg 71%
23:00 +22°C° 0 mm 1 m/s 756 mm Hg 73%
Mostrare altro

Abbiamo bisogno del tuo consenso

Meteoprog e i nostri fornitori di servizi possono memorizzare e accedere a dati personali come cookie, identificatori di dispositivi o altre tecnologie simili sul tuo dispositivo e possono elaborare tali dati per personalizzare i contenuti e gli annunci, nonché fornire funzionalità dei social media e analizzarne il traffico.

  • Archiviare e/o accedere alle informazioni sul tuo dispositivo

    Cookie, identificatori di dispositivi o altre informazioni possono essere memorizzati o resi accessibili sul tuo dispositivo per le finalità sopra indicate.

  • Annunci e contenuti personalizzati, misurazione di annunci e contenuti, approfondimenti sul pubblico e sviluppo di prodotti

    Gli annunci e i contenuti possono essere personalizzati in base a un profilo. È possibile aggiungere più dati per personalizzare meglio annunci e contenuti. È possibile misurare il rendimento degli annunci e dei contenuti. È possibile ricavare informazioni sul pubblico che ha visto gli annunci e i contenuti. Tali dati possono essere utilizzati per sviluppare o migliorare l'esperienza, i sistemi e il software dell'utente.

Cliccando su “Accetto”, acconsenti all'uso di cookie, identificatori di dispositivo, web beacon o altre tecnologie simili. Puoi modificare le impostazioni nel browser del tuo dispositivo.

Per determinati scopi, è possibile fare affidamento su interessi legali, piuttosto che sul consenso. Puoi approfondire questo argomento consultando la nostra Informativa sulla privacy e sui cookie.